SCP
0 0 0 0 0 0 0 0 0 0 0 0 0 0 0 0 0 0 0 0 0 0 0 0 0 0 0 0 0 0 0 0 0 0 0 0 0 0 0 0 0 0 0 0
0 0 0 0 0 0 0 0 0 0 0 0 0 0 0 0 0 0 0 0 0 0 0 0 0 0 0 0 0 0 0 0 0 0 0 0 0 0 0 0 0 0 0 0
0 0 0 0 0 0 0 0 0 0 0 0 0 0 0 0 0 0 0 0 0 0 0 0 0 0 0 0 0 0 0 0 0 0 0 0 0 0 0 0 0 0 0 0
0 0 0 0 0 0 0 0 0 0 0 0 0 0 0 0 0 0 0 0 0 0 0 0 0 0 0 0 0 0 0 0 0 0 0 0 0 0 0 0 0 0 0 0
0 0 0 0 0 0 0 0 0 0 0 0 0 0 0 0 0 0 0 0 0 0 0 0 0 0 0 0 0 0 0 0 0 0 0 0 0 0 0 0 0 0 0 0
0 0 0 0 0 0 0 0 0 0 0 0 0 0 0 0 0 0 0 0 0 0 0 0 0 0 0 0 0 0 0 0 0 0 0 0 0 0 0 0 0 0 0 0
0 0 0 0 0 0 0 0 0 0 0 0 0 0 0 0 0 0 0 0 0 0 0 0 0 0 0 0 0 0 0 0 0 0 0 0 0 0 0 0 0 0 0 0
0 0 0 0 0 0 0 0 0 0 0 0 0 0 0 0 0 0 0 0 0 0 0 0 0 0 0 0 0 0 0 0 0 0 0 0 0 0 0 0 0 0 0 0
0 0 0 0 0 0 0 0 0 0 0 0 0 0 0 0 0 0 0 0 0 0 0 0 0 0 0 0 0 0 0 0 0 0 0 0 0 0 0 0 0 0 0 0
0 0 0 0 0 0 0 0 0 0 0 0 0 0 0 0 0 0 0 0 0 0 0 0 0 0 0 0 0 0 0 0 0 0 0 0 0 0 0 0 0 0 0 0
0 0 0 0 0 0 0 0 0 0 0 0 0 0 0 0 0 0 0 0 0 0 0 0 0 0 0 0 0 0 0 0 0 0 0 0 0 0 0 0 0 0 0 0
0 0 0 0 0 0 0 0 0 0 0 0 0 0 0 0 0 0 0 0 0 0 0 0 0 0 0 0 0 0 0 0 0 0 0 0 0 0 0 0 0 0 0 0
0 0 0 0 0 0 0 0 0 0 0 0 0 0 0 0 0 0 0 0 0 0 0 0 0 0 0 0 0 0 0 0 0 0 0 0 0 0 0 0 0 0 0 0
0 0 0 0 0 0 0 0 0 0 0 0 0 0 0 0 0 0 0 0 0 0 0 0 0 0 0 0 0 0 0 0 0 0 0 0 0 0 0 0 0 0 0 0
0 0 0 0 0 0 0 0 0 0 0 0 0 0 0 0 0 0 0 0 0 0 0 0 0 0 0 0 0 0 0 0 0 0 0 0 0 0 0 0 0 0 0 0
0 0 0 0 0 0 0 0 0 0 0 0 0 0 0 0 0 0 0 0 0 0 0 0 0 0 0 0 0 0 0 0 0 0 0 0 0 0 0 0 0 0 0 0
0 0 0 0 0 0 0 0 0 0 0 0 0 0 0 0 0 0 0 0 0 0 0 0 0 0 0 0 0 0 0 0 0 0 0 0 0 0 0 0 0 0 0 0
0 0 0 0 0 0 0 0 0 0 0 0 0 0 0 0 0 0 0 0 0 0 0 0 0 0 0 0 0 0 0 0 0 0 0 0 0 0 0 0 0 0 0 0
0 0 0 0 0 0 0 0 0 0 0 0 0 0 0 0 0 0 0 0 0 0 0 0 0 0 0 0 0 0 0 0 0 0 0 0 0 0 0 0 0 0 0 0
0 0 0 0 0 0 0 0 0 0 0 0 0 0 0 0 0 0 0 0 0 0 0 0 0 0 0 0 0 0 0 0 0 0 0 0 0 0 0 0 0 0 0 0
0 0 0 0 0 0 0 0 0 0 0 0 0 0 0 0 0 0 0 0 0 0 0 0 0 0 0 0 0 0 0 0 0 0 0 0 0 0 0 0 0 0 0 0
0 0 0 0 0 0 0 0 0 0 0 0 0 0 0 0 0 0 0 0 0 0 0 0 0 0 0 0 0 0 0 0 0 0 0 0 0 0 0 0 0 0 0 0
0 0 0 0 0 0 0 0 0 0 0 0 0 0 0 0 0 0 0 0 0 0 0 0 0 0 0 0 0 0 0 0 0 0 0 0 0 0 0 0 0 0 0 0
0 0 0 0 0 0 0 0 0 0 0 0 0 0 0 0 0 0 0 0 0 0 0 0 0 0 0 0 0 0 0 0 0 0 0 0 0 0 0 0 0 0 0 0
0 0 0 0 0 0 0 0 0 0 0 0 0 0 0 0 0 0 0 0 0 0 0 0 0 0 0 0 0 0 0 0 0 0 0 0 0 0 0 0 0 0 0 0
0 0 0 0 0 0 0 0 0 0 0 0 0 0 0 0 0 0 0 0 0 0 0 0 0 0 0 0 0 0 0 0 0 0 0 0 0 0 0 0 0 0 0 0
0 0 0 0 0 0 0 0 0 0 0 0 0 0 0 0 0 0 0 0 0 0 0 0 0 0 0 0 0 0 0 0 0 0 0 0 0 0 0 0 0 0 0 0
Wind_Speed_500mb
32 35 36 33 32 27 26 22 7 22 45 20 14 22 10 21 29 17 9 10 22 25 21 20 20 27 26 9 6 20 20 8 17 45 26 10 9 25 27 20 23 26 28 36
34 35 32 25 24 23 30 19 11 29 51 14 18 11 21 36 25 19 9 12 8 4 9 12 22 24 10 7 9 8 5 7 9 13 12 6 13 17 32 32 7 27 18 6
13 15 16 15 19 28 34 17 8 13 35 20 20 27 29 32 15 20 22 21 15 16 24 19 20 19 4 1 1 2 5 11 27 34 36 24 19 18 24 29 15 28 35 48
20 16 11 11 14 19 32 16 7 10 11 18 18 19 9 10 9 6 4 5 13 8 13 12 21 18 8 4 4 4 8 13 27 26 31 33 35 29 35 40 35 20 42 40
27 24 15 9 11 14 23 13 9 9 5 5 14 27 29 37 29 21 21 26 27 21 21 25 34 24 21 25 9 7 7 15 29 45 45 41 38 36 42 38 40 46 51 54
30 28 23 18 16 11 8 14 15 11 10 9 10 9 13 3 7 5 8 3 5 7 10 1 6 12 16 17 11 22 17 12 18 40 25 28 22 34 37 43 48 47 47 28
32 34 33 24 27 21 14 17 17 9 6 14 13 10 10 11 6 1 4 2 3 1 4 17 18 22 32 38 39 36 22 24 13 26 18 40 28 9 22 37 36 10 4 8
24 33 35 29 31 33 29 22 18 10 5 13 13 17 10 7 4 9 16 18 16 16 8 6 8 5 6 18 36 37 38 28 17 18 30 41 47 32 25 24 36 15 15 7
45 43 38 31 27 33 37 32 26 13 8 14 12 16 22 12 8 3 9 11 17 12 6 4 10 10 0 8 9 3 15 27 22 6 16 25 20 4 8 6 13 17 9 6
55 42 41 41 46 40 42 37 37 30 13 18 26 12 12 17 11 4 4 8 10 19 8 8 9 11 5 10 7 6 3 5 23 24 24 19 8 11 11 9 8 19 18 31
56 57 56 55 54 47 57 60 51 54 22 31 38 43 27 17 23 11 14 7 6 6 11 8 8 11 11 6 11 8 10 9 9 2 7 21 14 14 11 3 24 31 39 41
48 61 51 51 50 58 52 60 62 62 46 22 32 61 60 59 47 36 33 13 16 21 9 7 4 6 6 12 11 6 12 21 9 16 10 1 23 16 32 49 47 58 48 47
58 60 62 55 55 54 54 58 54 68 51 43 53 57 70 71 69 64 33 30 37 24 20 16 8 10 9 12 16 22 24 33 22 21 37 43 58 63 66 67 60 60 50 48
60 60 62 62 56 56 59 64 64 64 24 10 30 47 53 51 59 74 77 65 31 38 41 21 11 10 23 16 21 22 26 8 16 28 39 55 62 66 72 71 62 47 49 43
57 57 59 52 55 55 58 65 64 60 48 3 6 25 37 39 39 56 72 76 56 31 16 13 14 21 14 18 16 24 42 41 24 29 52 44 59 62 60 51 44 37 39 37
58 57 56 60 61 53 55 46 72 69 64 18 7 27 52 58 57 51 60 73 74 57 22 15 21 38 25 10 15 51 65 58 66 60 77 65 76 69 59 52 51 40 35 35
60 62 62 58 56 57 60 17 23 38 73 21 7 8 32 43 49 53 47 47 39 40 26 21 30 22 25 10 22 60 49 55 65 68 58 52 57 35 44 42 38 32 29 30
56 59 59 58 57 60 72 81 37 34 52 23 7 5 5 26 16 18 29 25 35 24 20 13 13 15 20 12 43 63 64 64 68 70 64 66 57 50 39 34 33 32 30 31
51 52 52 53 64 63 63 70 78 74 46 12 12 13 9 25 15 14 18 19 9 16 11 14 17 11 14 30 48 54 65 58 54 50 47 43 36 35 34 31 29 30 30 31
45 44 44 22 59 62 45 35 38 47 35 29 9 22 8 27 24 13 14 12 7 8 12 13 11 21 64 53 58 61 59 49 36 29 28 33 33 31 31 30 29 29 30 35
49 28 26 29 31 53 36 17 15 15 10 21 20 40 10 23 8 8 19 8 9 9 9 14 10 11 25 61 67 71 57 45 37 34 34 31 29 29 30 29 28 31 35 40
41 21 23 36 22 17 14 13 10 10 15 15 13 20 39 23 19 8 12 7 8 10 8 7 7 10 37 40 44 42 37 32 29 29 30 29 27 27 28 30 31 35 40 42
39 20 22 16 14 13 15 21 8 9 7 26 24 11 27 16 19 8 9 11 10 10 8 9 9 8 23 26 30 30 26 25 24 23 22 21 23 25 29 32 34 41 45 42
25 16 14 14 9 10 8 10 13 15 31 54 39 13 8 12 11 7 10 7 7 9 9 12 7 22 22 23 23 22 20 19 18 19 19 21 24 27 29 34 39 44 46 44
20 14 14 11 5 3 5 15 15 20 38 54 21 9 12 6 7 8 7 8 10 12 10 8 9 16 20 22 21 20 18 16 16 17 20 22 27 32 32 33 37 41 44 43
10 11 9 5 5 3 7 9 5 22 38 35 12 8 9 9 8 12 15 12 15 10 7 9 19 22 23 22 21 18 14 12 14 18 21 24 27 31 33 32 32 34 36 35
3 1 2 3 15 12 14 16 19 34 27 6 6 14 12 7 7 10 8 11 6 4 11 21 22 25 24 22 17 13 11 12 14 16 20 22 25 28 30 31 25 26 25 23
Wind_Direction_500mb
250 252 255 260 264 259 233 196 196 186 173 180 195 231 208 232 268 275 253 279 263 264 271 265 264 257 244 231 252 271 252 266 245 267 288 270 259 259 242 246 247 240 263 264
263 263 266 262 257 225 186 177 163 171 178 207 213 217 231 246 239 247 243 249 218 182 261 274 248 257 246 279 209 256 138 240 281 258 236 189 212 235 250 259 274 241 258 226
217 216 236 228 193 186 178 165 153 178 203 228 223 228 248 247 246 243 236 253 245 258 257 244 270 271 287 354 221 178 29 239 248 260 271 315 266 254 269 274 261 272 262 276
208 203 228 217 184 175 177 171 193 172 190 223 235 231 242 234 245 269 227 258 246 269 265 289 258 277 309 268 300 244 203 266 262 264 270 271 270 269 266 260 264 260 280 281
210 219 208 228 156 183 191 165 152 169 159 166 186 214 240 251 255 257 258 258 269 281 260 259 281 290 263 267 274 267 266 269 281 273 274 266 263 261 256 268 268 264 264 265
207 215 221 222 228 221 198 177 162 153 152 163 175 209 221 174 170 158 65 87 320 239 266 329 298 248 261 261 265 277 265 270 269 272 279 298 265 241 254 262 265 269 273 295
212 224 230 234 225 218 212 189 170 164 183 199 200 193 196 187 164 215 148 96 190 149 319 314 283 259 260 256 251 231 249 254 250 268 268 254 272 318 272 268 281 304 142 129
229 225 231 228 226 220 219 211 199 173 192 205 198 180 174 184 225 245 252 246 244 250 245 272 294 243 264 246 234 237 228 241 259 257 259 282 288 273 254 251 275 180 150 182
225 220 224 227 223 220 224 221 211 195 137 227 192 193 211 215 205 239 221 227 234 200 181 159 222 242 268 271 288 137 227 235 245 230 257 265 292 70 103 106 267 176 178 277
246 241 225 236 229 221 224 223 211 203 203 217 174 187 183 171 161 165 209 180 181 188 188 200 214 242 226 250 240 246 208 205 231 238 253 263 231 137 136 222 294 175 253 272
241 235 236 237 238 232 225 229 218 213 217 238 221 224 200 166 177 175 176 142 192 157 192 192 212 223 207 241 249 239 248 249 215 190 247 270 129 122 217 210 289 289 289 281
244 243 235 231 238 236 235 237 238 224 224 241 237 244 243 243 238 215 190 211 167 184 181 214 201 213 208 214 252 182 253 223 255 214 243 280 192 244 239 287 284 290 290 293
240 237 237 231 240 233 232 236 238 215 224 243 240 242 248 243 233 233 217 229 225 215 211 166 207 228 184 223 239 256 259 255 251 271 260 263 269 270 275 281 282 286 286 290
240 240 239 237 234 237 229 227 235 235 246 252 256 244 240 248 237 239 233 229 233 228 218 216 211 220 203 233 240 238 245 249 239 254 264 274 268 266 268 273 281 280 281 279
248 244 242 238 235 241 243 237 233 231 224 277 262 266 258 259 245 234 231 228 222 217 201 212 222 231 226 240 249 250 241 241 246 255 266 260 270 273 277 277 272 263 270 269
249 248 244 244 237 235 231 226 229 231 234 232 254 263 262 255 242 225 225 229 225 219 210 218 233 236 197 224 238 249 252 249 248 253 264 268 269 273 274 269 266 260 262 266
251 247 248 245 241 236 223 196 228 222 220 216 243 227 243 234 216 219 222 219 211 212 223 227 234 219 212 232 244 252 253 254 256 259 267 266 261 255 268 268 257 258 262 272
249 250 245 244 243 240 235 237 212 194 179 199 207 198 236 201 188 196 197 199 205 214 221 221 222 234 222 243 244 254 263 264 265 266 260 257 263 266 256 253 259 267 275 282
247 246 248 248 237 232 231 230 232 216 203 200 185 174 209 182 191 179 177 185 199 197 213 224 198 215 220 227 240 244 247 249 252 262 258 257 250 249 250 254 259 269 279 281
246 240 233 230 226 228 226 203 201 199 206 202 179 177 176 175 173 173 152 189 218 205 226 185 222 236 239 249 251 256 260 258 257 239 241 244 242 239 245 256 267 274 282 288
236 217 219 241 215 184 184 191 195 164 197 185 163 188 154 194 156 182 208 186 190 215 206 196 214 246 236 242 244 249 251 254 253 249 252 254 251 252 258 265 274 281 286 292
226 224 218 185 196 176 191 181 169 205 193 165 154 185 191 169 166 175 188 207 193 234 130 207 235 243 239 230 226 235 243 251 250 247 247 250 253 259 266 274 280 283 288 296
229 205 184 212 177 201 193 177 166 175 161 166 164 164 163 147 176 180 172 211 221 112 195 229 244 226 224 222 229 235 243 244 242 245 249 256 264 272 279 284 289 293 295 300
191 181 201 206 188 218 185 171 164 190 173 172 165 130 156 163 171 175 197 153 131 209 221 226 223 230 224 219 225 228 229 231 238 245 255 265 274 281 289 294 294 294 296 298
184 197 209 194 145 171 181 173 147 167 181 151 136 122 146 156 176 193 118 159 212 217 219 221 213 201 193 197 202 205 209 223 244 261 275 285 292 295 295 295 296 296 297 299
240 167 130 90 130 175 152 172 197 176 166 157 138 140 171 188 181 183 199 173 210 220 210 194 176 181 181 181 184 191 208 237 264 282 290 294 297 302 307 307 304 300 301 300
38 50 133 141 131 140 160 154 160 168 164 171 153 182 187 113 193 197 186 204 226 151 188 172 171 171 171 173 183 200 228 255 273 290 303 310 309 309 309 311 308 301 300 296
Wind_Speed_850mb
32 35 36 33 32 27 26 22 7 22 45 20 14 22 10 21 29 17 9 10 22 25 21 20 20 27 26 9 6 20 20 8 17 45 26 10 9 25 27 20 23 26 28 36
34 35 32 25 24 23 30 19 11 29 51 14 18 11 21 36 25 19 9 12 8 4 9 12 22 24 10 7 9 8 5 7 9 13 12 6 13 17 32 32 7 27 18 6
13 15 16 15 19 28 34 17 8 13 35 20 20 27 29 32 15 20 22 21 15 16 24 19 20 19 4 1 1 2 5 11 27 34 36 24 19 18 24 29 15 28 35 48
20 16 11 11 14 19 32 16 7 10 11 18 18 19 9 10 9 6 4 5 13 8 13 12 21 18 8 4 4 4 8 13 27 26 31 33 35 29 35 40 35 20 42 40
27 24 15 9 11 14 23 13 9 9 5 5 14 27 29 37 29 21 21 26 27 21 21 25 34 24 21 25 9 7 7 15 29 45 45 41 38 36 42 38 40 46 51 54
30 28 23 18 16 11 8 14 15 11 10 9 10 9 13 3 7 5 8 3 5 7 10 1 6 12 16 17 11 22 17 12 18 40 25 28 22 34 37 43 48 47 47 28
32 34 33 24 27 21 14 17 17 9 6 14 13 10 10 11 6 1 4 2 3 1 4 17 18 22 32 38 39 36 22 24 13 26 18 40 28 9 22 37 36 10 4 8
24 33 35 29 31 33 29 22 18 10 5 13 13 17 10 7 4 9 16 18 16 16 8 6 8 5 6 18 36 37 38 28 17 18 30 41 47 32 25 24 36 15 15 7
45 43 38 31 27 33 37 32 26 13 8 14 12 16 22 12 8 3 9 11 17 12 6 4 10 10 0 8 9 3 15 27 22 6 16 25 20 4 8 6 13 17 9 6
55 42 41 41 46 40 42 37 37 30 13 18 26 12 12 17 11 4 4 8 10 19 8 8 9 11 5 10 7 6 3 5 23 24 24 19 8 11 11 9 8 19 18 31
56 57 56 55 54 47 57 60 51 54 22 31 38 43 27 17 23 11 14 7 6 6 11 8 8 11 11 6 11 8 10 9 9 2 7 21 14 14 11 3 24 31 39 41
48 61 51 51 50 58 52 60 62 62 46 22 32 61 60 59 47 36 33 13 16 21 9 7 4 6 6 12 11 6 12 21 9 16 10 1 23 16 32 49 47 58 48 47
58 60 62 55 55 54 54 58 54 68 51 43 53 57 70 71 69 64 33 30 37 24 20 16 8 10 9 12 16 22 24 33 22 21 37 43 58 63 66 67 60 60 50 48
60 60 62 62 56 56 59 64 64 64 24 10 30 47 53 51 59 74 77 65 31 38 41 21 11 10 23 16 21 22 26 8 16 28 39 55 62 66 72 71 62 47 49 43
57 57 59 52 55 55 58 65 64 60 48 3 6 25 37 39 39 56 72 76 56 31 16 13 14 21 14 18 16 24 42 41 24 29 52 44 59 62 60 51 44 37 39 37
58 57 56 60 61 53 55 46 72 69 64 18 7 27 52 58 57 51 60 73 74 57 22 15 21 38 25 10 15 51 65 58 66 60 77 65 76 69 59 52 51 40 35 35
60 62 62 58 56 57 60 17 23 38 73 21 7 8 32 43 49 53 47 47 39 40 26 21 30 22 25 10 22 60 49 55 65 68 58 52 57 35 44 42 38 32 29 30
56 59 59 58 57 60 72 81 37 34 52 23 7 5 5 26 16 18 29 25 35 24 20 13 13 15 20 12 43 63 64 64 68 70 64 66 57 50 39 34 33 32 30 31
51 52 52 53 64 63 63 70 78 74 46 12 12 13 9 25 15 14 18 19 9 16 11 14 17 11 14 30 48 54 65 58 54 50 47 43 36 35 34 31 29 30 30 31
45 44 44 22 59 62 45 35 38 47 35 29 9 22 8 27 24 13 14 12 7 8 12 13 11 21 64 53 58 61 59 49 36 29 28 33 33 31 31 30 29 29 30 35
49 28 26 29 31 53 36 17 15 15 10 21 20 40 10 23 8 8 19 8 9 9 9 14 10 11 25 61 67 71 57 45 37 34 34 31 29 29 30 29 28 31 35 40
41 21 23 36 22 17 14 13 10 10 15 15 13 20 39 23 19 8 12 7 8 10 8 7 7 10 37 40 44 42 37 32 29 29 30 29 27 27 28 30 31 35 40 42
39 20 22 16 14 13 15 21 8 9 7 26 24 11 27 16 19 8 9 11 10 10 8 9 9 8 23 26 30 30 26 25 24 23 22 21 23 25 29 32 34 41 45 42
25 16 14 14 9 10 8 10 13 15 31 54 39 13 8 12 11 7 10 7 7 9 9 12 7 22 22 23 23 22 20 19 18 19 19 21 24 27 29 34 39 44 46 44
20 14 14 11 5 3 5 15 15 20 38 54 21 9 12 6 7 8 7 8 10 12 10 8 9 16 20 22 21 20 18 16 16 17 20 22 27 32 32 33 37 41 44 43
10 11 9 5 5 3 7 9 5 22 38 35 12 8 9 9 8 12 15 12 15 10 7 9 19 22 23 22 21 18 14 12 14 18 21 24 27 31 33 32 32 34 36 35
3 1 2 3 15 12 14 16 19 34 27 6 6 14 12 7 7 10 8 11 6 4 11 21 22 25 24 22 17 13 11 12 14 16 20 22 25 28 30 31 25 26 25 23
Wind_Direction_850mb
250 252 255 260 264 259 233 196 196 186 173 180 195 231 208 232 268 275 253 279 263 264 271 265 264 257 244 231 252 271 252 266 245 267 288 270 259 259 242 246 247 240 263 264
263 263 266 262 257 225 186 177 163 171 178 207 213 217 231 246 239 247 243 249 218 182 261 274 248 257 246 279 209 256 138 240 281 258 236 189 212 235 250 259 274 241 258 226
217 216 236 228 193 186 178 165 153 178 203 228 223 228 248 247 246 243 236 253 245 258 257 244 270 271 287 354 221 178 29 239 248 260 271 315 266 254 269 274 261 272 262 276
208 203 228 217 184 175 177 171 193 172 190 223 235 231 242 234 245 269 227 258 246 269 265 289 258 277 309 268 300 244 203 266 262 264 270 271 270 269 266 260 264 260 280 281
210 219 208 228 156 183 191 165 152 169 159 166 186 214 240 251 255 257 258 258 269 281 260 259 281 290 263 267 274 267 266 269 281 273 274 266 263 261 256 268 268 264 264 265
207 215 221 222 228 221 198 177 162 153 152 163 175 209 221 174 170 158 65 87 320 239 266 329 298 248 261 261 265 277 265 270 269 272 279 298 265 241 254 262 265 269 273 295
212 224 230 234 225 218 212 189 170 164 183 199 200 193 196 187 164 215 148 96 190 149 319 314 283 259 260 256 251 231 249 254 250 268 268 254 272 318 272 268 281 304 142 129
229 225 231 228 226 220 219 211 199 173 192 205 198 180 174 184 225 245 252 246 244 250 245 272 294 243 264 246 234 237 228 241 259 257 259 282 288 273 254 251 275 180 150 182
225 220 224 227 223 220 224 221 211 195 137 227 192 193 211 215 205 239 221 227 234 200 181 159 222 242 268 271 288 137 227 235 245 230 257 265 292 70 103 106 267 176 178 277
246 241 225 236 229 221 224 223 211 203 203 217 174 187 183 171 161 165 209 180 181 188 188 200 214 242 226 250 240 246 208 205 231 238 253 263 231 137 136 222 294 175 253 272
241 235 236 237 238 232 225 229 218 213 217 238 221 224 200 166 177 175 176 142 192 157 192 192 212 223 207 241 249 239 248 249 215 190 247 270 129 122 217 210 289 289 289 281
244 243 235 231 238 236 235 237 238 224 224 241 237 244 243 243 238 215 190 211 167 184 181 214 201 213 208 214 252 182 253 223 255 214 243 280 192 244 239 287 284 290 290 293
240 237 237 231 240 233 232 236 238 215 224 243 240 242 248 243 233 233 217 229 225 215 211 166 207 228 184 223 239 256 259 255 251 271 260 263 269 270 275 281 282 286 286 290
240 240 239 237 234 237 229 227 235 235 246 252 256 244 240 248 237 239 233 229 233 228 218 216 211 220 203 233 240 238 245 249 239 254 264 274 268 266 268 273 281 280 281 279
248 244 242 238 235 241 243 237 233 231 224 277 262 266 258 259 245 234 231 228 222 217 201 212 222 231 226 240 249 250 241 241 246 255 266 260 270 273 277 277 272 263 270 269
249 248 244 244 237 235 231 226 229 231 234 232 254 263 262 255 242 225 225 229 225 219 210 218 233 236 197 224 238 249 252 249 248 253 264 268 269 273 274 269 266 260 262 266
251 247 248 245 241 236 223 196 228 222 220 216 243 227 243 234 216 219 222 219 211 212 223 227 234 219 212 232 244 252 253 254 256 259 267 266 261 255 268 268 257 258 262 272
249 250 245 244 243 240 235 237 212 194 179 199 207 198 236 201 188 196 197 199 205 214 221 221 222 234 222 243 244 254 263 264 265 266 260 257 263 266 256 253 259 267 275 282
247 246 248 248 237 232 231 230 232 216 203 200 185 174 209 182 191 179 177 185 199 197 213 224 198 215 220 227 240 244 247 249 252 262 258 257 250 249 250 254 259 269 279 281
246 240 233 230 226 228 226 203 201 199 206 202 179 177 176 175 173 173 152 189 218 205 226 185 222 236 239 249 251 256 260 258 257 239 241 244 242 239 245 256 267 274 282 288
236 217 219 241 215 184 184 191 195 164 197 185 163 188 154 194 156 182 208 186 190 215 206 196 214 246 236 242 244 249 251 254 253 249 252 254 251 252 258 265 274 281 286 292
226 224 218 185 196 176 191 181 169 205 193 165 154 185 191 169 166 175 188 207 193 234 130 207 235 243 239 230 226 235 243 251 250 247 247 250 253 259 266 274 280 283 288 296
229 205 184 212 177 201 193 177 166 175 161 166 164 164 163 147 176 180 172 211 221 112 195 229 244 226 224 222 229 235 243 244 242 245 249 256 264 272 279 284 289 293 295 300
191 181 201 206 188 218 185 171 164 190 173 172 165 130 156 163 171 175 197 153 131 209 221 226 223 230 224 219 225 228 229 231 238 245 255 265 274 281 289 294 294 294 296 298
184 197 209 194 145 171 181 173 147 167 181 151 136 122 146 156 176 193 118 159 212 217 219 221 213 201 193 197 202 205 209 223 244 261 275 285 292 295 295 295 296 296 297 299
240 167 130 90 130 175 152 172 197 176 166 157 138 140 171 188 181 183 199 173 210 220 210 194 176 181 181 181 184 191 208 237 264 282 290 294 297 302 307 307 304 300 301 300
38 50 133 141 131 140 160 154 160 168 164 171 153 182 187 113 193 197 186 204 226 151 188 172 171 171 171 173 183 200 228 255 273 290 303 310 309 309 309 311 308 301 300 296